www.pogodaiklimat.ru

Погода и климат >> Архив погоды >> Тунис >> Kasserine


ПОГОДА в Kasserine

  • Прогноз погоды в Kasserine
  • Монитор погоды в Kasserine
  • Климат города

АРХИВ ПОГОДЫ в Kasserine

Время (UTC), дата Ветер
(напр.,м/с)
 
Видим.   Явления Облачность Т
(С)
Тd
(С)
f
(%)
Тe
(С)
Тes
(С)
Комфортность P
(гПа)
Po
(гПа)
Тmin
(С)
Tmax
(С)
R
(мм)
R24
(мм)
S
(см)
06 8.08 штиль 0
{4}
10 км 3/3 1500 м
[Sc]
+18.7 +18.7 100 +20 +21 1015.0 935.7 +17.2
09 8.08 0-6
{7}
10 км 4/1 1500 м
[Sc Ac trans]
+26.2 +21.4 75 1013.7 936.5
12 8.08 0-4
{9}
10 км гроза с градом 8/1 900 м
[Cb cap]
+27.6 +21.6 70 1012.0 935.3 1
15 8.08 0-6
{12}
10 км гроза с градом 9/8 1000 м
[Cu Sc]
+29.0 +18.4 53 1011.2 934.8
18 8.08 0-4
{12}
10 км 9/4 1000 м
[Cu Sc Ci sp]
+26.2 +19.3 66 1012.3 935.1 +32.0
06 9.08 штиль 0
{3}
10 км 3/3 1500 м
[Sc]
+19.9 +19.4 97 +23 +24 комфорт 1016.4 937.3 +18.6
09 9.08 0-7
{7}
10 км ясно +27.5 +21.1 68 1014.6 937.6
12 9.08 0-9
{11}
10 км 8/8 1000 м
[Cu Sc]
+30.3 +21.4 59 1012.8 936.7
15 9.08 штиль 0-4
{19}
10 км 10/8 1000 м
[Cu Sc Ac und]
+24.5 +19.6 74 +30 +30 очень
душно
1014.3 936.6
18 9.08 штиль 0
{19}
10 км 4/1 1500 м
[Sc Ac und]
+26.6 +21.6 74 +34 +34 очень
душно
1013.4 936.3 +31.0 9
21 9.08 штиль 0
{3}
н/о н/о +24.4 +21.7 85 +31 +31 очень
душно
1015.9 938.1
00 10.08 штиль 0
{3}
н/о н/о +22.2 +21.4 95 +29 +29 очень
душно
1017.5 939.0
03 10.08 штиль 0 н/о н/о +20.8 +20.6 99 +25 +25 комфорт 1018.0 939.1
06 10.08 0-3
{3}
10 км 8/4 1500 м
[Sc Ac trans Ci sp]
+20.3 +20.3 100 1019.4 940.2 +19.8
09 10.08 штиль 0
{2}
10 км 5/1 1500 м
[Sc Ac trans]
+26.5 +21.5 74 +34 +46 очень
душно
1018.6 941.1
12 10.08 штиль 0-3
{3}
10 км 4/0
[Ac trans]
+31.3 +19.3 49 +37 +57 опасность
солнечного
удара
1016.9 940.6
15 10.08 0-6
{8}
10 км 9/1 900 м
[Cb cap Ci sp]
+30.6 +19.3 51 1016.9 940.4
18 10.08 штиль 0
{8}
10 км 9/3 1500 м
[Sc Ac trans Ci sp]
+28.1 +21.4 67 +36 +36 очень
душно
1017.1 940.1 +32.9
21 10.08 0-6
{7}
н/о н/о +25.2 +21.9 82 1020.1 942.2
03 11.08 штиль 0 н/о н/о +21.9 +21.2 96 +28 +28 душно 1020.0 941.2
06 11.08 штиль 0
{3}
10 км 3/3 1500 м
[Sc]
+21.3 +21.0 98 +27 +28 душно 1020.6 941.6 +20.4
12 11.08 0-5
{6}
10 км 9/6 1000 м
[Cu Sc Ac trans]
+29.9 +19.6 54 1017.7 941.0
18 11.08 0-9
{9}
10 км слабый дождь {гроза} 10/1 900 м
[Cb cap Ac und]
+26.5 +21.0 72 1018.0 940.5 +31.7
21 11.08 штиль 0
{14}
н/о н/о +24.1 +19.0 73 +29 +29 душно 1018.9 940.7 0.2
00 12.08 0-6
{14}
н/о н/о +22.5 +18.9 80 1018.6 940.0
06 12.08 штиль 0
{5}
10 км 9/5 1500 м
[Sc Ac und]
+21.4 +19.7 90 +26 +27 душно 1018.6 939.8 +20.9
12 12.08 0-8
{8}
10 км 10/6 1000 м
[Cu Sc Ac und]
+23.4 +21.1 87 1017.7 939.5
15 12.08 0-5
{8}
10 км 10/6 1000 м
[Cu Sc Ac und]
+25.5 +20.3 73 1016.0 938.4
18 12.08 0-6
{9}
10 км в посл. час гроза {дождь} 10/3 800 м
[Cb cap Ac und]
+21.0 +20.7 98 1018.0 939.1 +29.4
21 12.08 штиль 0
{6}
н/о н/о +20.8 +20.8 100 +26 +26 душно 1016.9 938.1 4
00 13.08 штиль 0
{6}
н/о н/о +20.7 +20.5 99 +25 +25 комфорт 1016.1 937.3 0.2
03 13.08 штиль 0
{3}
н/о н/о +20.8 +20.5 98 +25 +25 комфорт 1015.2 936.5
06 13.08 штиль 0
{7}
10 км 9/4 1500 м
[Sc Ac und]
+20.9 +20.7 99 +26 +26 душно 1015.6 936.9 +20.5 9
09 13.08 штиль 0
{2}
10 км 9/4 1500 м
[Sc Ac und]
+23.0 +22.0 94 +31 +36 очень
душно
1016.1 938.0
12 13.08 0-6
{8}
10 км 6/4 1000 м
[Cu Sc Ac und]
+25.1 +20.1 74 1014.2 936.6 4
15 13.08 штиль 0
{9}
10 км гроза без осадков {дождь} 9/3 800 м
[Cb cap Ac und]
+25.3 +22.0 82 +33 +36 очень
душно
1012.6 935.3
18 13.08 0-3
{9}
10 км 5/0
[Ac und]
+26.9 +22.1 75 1011.3 934.5 +28.0 0.2
21 13.08 штиль 0-3
{3}
н/о н/о +21.9 +21.2 96 +28 +28 душно 1014.4 936.1
03 14.08 0-3
{4}
н/о н/о +18.7 +18.7 100 1015.2 935.9
06 14.08 0-3
{6}
10 км 1/0
[Ci sp]
+19.1 +18.9 99 1015.6 936.4 +18.1 6
09 14.08 штиль 0
{4}
10 км ясно +27.5 +19.8 63 +33 +51 опасность
солнечного
удара
1013.7 936.8
12 14.08 0-4
{5}
10 км 1/0
[Ac trans]
+32.7 +12.9 30 1011.6 935.8
18 14.08 0-3
{24}
10 км {дождь} 9/4 1500 м
[Sc Ac und]
+25.1 +18.5 67 1013.1 935.6 +34.4 0.4
21 14.08 0-3
{6}
н/о н/о +22.9 +18.4 76 1015.7 937.4
00 15.08 штиль 0
{8}
н/о н/о +21.7 +18.9 84 +27 +27 душно 1015.7 937.1
03 15.08 0-3
{4}
н/о н/о +19.4 +18.6 95 1015.1 936.0

 

Местоположение метеостанции Kasserine (Тунис): широта 35.15 долгота 8.45 высота над уровнем моря 707 м.

В архиве по умолчанию представлена погода в Kasserine за последнюю неделю. Архивные данные за месяц целиком и за предыдущие месяцы, начиная с января 2011 года, Вы можете получить, выбрав интересующий диапазон дат из раскрывающегося списка и нажав кнопку "Ввод!".


*Определитесь, кто Вы:
робот инопланетянин человек

Внимание! Время в таблицах - всемирное. Для получения местного времени необходимо прибавить поправку, которая в Kasserine равна 1 ч.

Смотрите также архив погоды в соседних городах и на ближайших метеорологических станциях:

Погода в Tebessa (Алжир) (42 км)
Погода в Thala (Тунис) (49 км)
Погода в Gafsa (Тунис) (88 км)
Погода в Sidi Bouzid (Тунис) (95 км)
Погода в El Kef (Тунис) (111 км)
Погода в Khenchella (Алжир) (129 км)
Погода в Siliana (Тунис) (132 км)
Погода в Souk Ahras (Алжир) (133 км)
Погода в Tozeur (Тунис) (139 км)
Погода в Oum El Bouaghi (Алжир) (145 км)

Пояснения к столбцам:

Ветер - указаны скорость ветра в м/с - средняя за 10 мин, порывы в срок и между сроками (в фигурных скобках) и направление, откуда дует ветер: С - северный, СВ - северо-восточный, В - восточный, ЮВ - юго-восточный, Ю - южный, ЮЗ - юго-западный, З - западный, СЗ - северо-западный.
Видимость - горизонтальная дальность видимости в метрах или километрах. При видимости от 1 до 10 км при отсутствии осадков обычно наблюдается дымка, при ухудшении видимости до 1 км и менее - туман. В сухую погоду видимость может ухудшаться дымом, пылью или мглою.
Явления - указаны атмосферные явления, наблюдавшиеся в срок или в последний час перед сроком; фигурными скобками обозначены явления, наблюдавшиеся между сроками (за 1-3 часа до срока); квадратными скобками обозначены град или гололедные отложения с указанием их диаметра в мм.
Облачность - указаны через наклонную черту общая и нижняя облачность в баллах и высота нижней границы облаков в метрах; квадратными скобками обозначены формы облаков: Ci - перистые, Cs - перисто-слоистые, Cc - перисто-кучевые, Ac - высококучевые, As - высокослоистые, Sc - слоисто-кучевые, Ns - слоисто-дождевые, Cu - кучевые, Cb - кучево-дождевые. Подробнее классификацию облаков см. в Атласе облаков (PDF).
T - Температура воздуха - температура, измеренная на высоте 2 м над землей.
Td - Температура точки росы - температура, при понижении до которой содержащийся в воздухе водяной пар достигнет насыщения.
f - Относительная влажность воздуха - влажноcть воздуха, измеренная на высоте 2 м над землей.
Te - Эффективная температура - температура, которую ощущает одетый по сезону человек в тени. Характеристика душности погоды. При расчете учитывается влияние влажности воздуха и скорости ветра на теплоощущения человека.
Tes - Эффективная температура на солнце - температура, которую ощущает человек, с поправкой на солнечный нагрев. Характеристика знойности погоды. Зависит от высоты солнца над горизонтом, облачности и скорости ветра. Ночью, в пасмурную погоду, а также при ветре 12 м/с и более поправка равна нулю.
P - Атмосферное давление - приведенное к уровню моря атмосферное давление.
Po - Атмосферное давление - измеренное на уровне метеостанции атмосферное давление.
Tmin - Минимальная температура - минимум температуры воздуха на высоте 2 м над землей.
Tmax - Максимальная температура - максимум температуры воздуха на высоте 2 м над землей.
R - Количество осадков - Количество выпавших осадков за период времени, мм. При наведении курсора мыши на число - период времени, за который выпало указанное количество осадков.
R24 - Количество осадков - Количество выпавших осадков за 24 часа, мм.
S - Снежный покров - Высота снежного покрова, см. При наведении курсора мыши на число - состояние снежного покрова и степень покрытия местности в баллах.